GW2921 Weather Reports


time (UTC)temp
C
wind
direction
speed
KPH
gust
KPH
rain 1hr
cm
rain 24hr
cm
rain mn
cm
humidity
%
barometer
mb
20260508121604 3 0 0.0 1.6 0.00 0.03 0.00 96 1018.0
20260508120050 2 0 0.0 1.6 0.00 0.03 0.00 96 1017.8
20260508114556 1 0 0.0 0.0 0.00 0.10 0.00 96 1017.7
20260508113053 1 0 0.0 1.6 0.00 0.10 0.00 95 1017.8
20260508111558 1 0 0.0 1.6 0.00 0.10 0.00 95 1017.5
20260508110053 0 262 0.0 1.6 0.00 0.10 0.00 95 1017.5
20260508104548 0 0 0.0 1.6 0.00 0.13 0.00 94 1017.3
20260508103103 0 0 0.0 3.2 0.00 0.13 0.00 95 1017.2
20260508101549 0 0 0.0 1.6 0.00 0.13 0.00 94 1017.2
20260508100048 0 0 0.0 1.6 0.00 0.13 0.00 94 1017.1
20260508094603 0 0 0.0 1.6 0.00 0.13 0.00 94 1016.9
20260508093048 1 262 0.0 3.2 0.00 0.13 0.00 94 1016.8
20260508091555 1 0 0.0 1.6 0.00 0.13 0.00 94 1016.8
20260508090051 1 262 0.0 3.2 0.00 0.13 0.00 94 1016.6
20260508084548 1 262 1.6 3.2 0.00 0.13 0.00 94 1016.7
20260508083131 1 0 0.0 3.2 0.00 0.13 0.00 94 1016.6
20260508081557 1 0 0.0 1.6 0.00 0.13 0.00 94 1016.5
20260508080054 1 262 0.0 3.2 0.00 0.13 0.00 94 1016.4
20260508074548 2 0 0.0 1.6 0.00 0.15 0.00 94 1016.5
20260508073057 2 240 0.0 3.2 0.00 0.15 0.00 94 1016.3
20260508071556 2 0 0.0 0.0 0.00 0.15 0.00 94 1016.1
20260508070059 2 0 0.0 0.0 0.00 0.15 0.00 94 1016.1
20260508064610 2 0 0.0 0.0 0.00 0.18 0.00 94 1016.2
20260508063057 2 0 0.0 0.0 0.00 0.18 0.00 94 1016.2
20260508061602 2 0 0.0 1.6 0.00 0.18 0.00 94 1016.4
20260508054605 3 0 0.0 0.0 0.00 0.20 0.00 94 1016.6
20260508053102 3 0 0.0 0.0 0.00 0.20 0.00 94 1016.5
20260508051550 3 0 0.0 0.0 0.00 0.20 0.00 93 1016.3
20260508050059 3 0 0.0 0.0 0.00 0.20 0.00 93 1016.2
20260508044552 3 0 0.0 0.0 0.00 0.20 0.00 93 1016.1
20260508043056 4 0 0.0 0.0 0.00 0.20 0.00 93 1015.9
20260508041557 4 0 0.0 1.6 0.00 0.20 0.00 93 1015.9
20260508040048 5 0 0.0 1.6 0.00 0.20 0.00 93 1015.9
20260508034556 5 0 0.0 1.6 0.00 0.23 0.20 93 1015.8
20260508033100 5 0 0.0 0.0 0.00 0.23 0.20 93 1015.7
20260508031548 5 0 0.0 0.0 0.00 0.23 0.20 92 1015.5
20260508030109 5 0 0.0 0.0 0.00 0.23 0.20 92 1015.6
20260508024601 5 0 0.0 0.0 0.00 0.28 0.20 92 1015.2
20260508023052 6 0 0.0 0.0 0.00 0.28 0.20 91 1015.0
20260508021552 6 0 0.0 0.0 0.00 0.28 0.20 90 1014.9
20260508020050 6 0 0.0 1.6 0.00 0.28 0.20 90 1014.6
20260508014553 6 0 0.0 0.0 0.00 0.30 0.20 89 1014.5
20260508013045 7 0 0.0 0.0 0.00 0.30 0.20 88 1014.2
20260508011602 7 0 0.0 0.0 0.00 0.30 0.20 87 1014.0
20260508010105 7 0 0.0 0.0 0.00 0.30 0.20 86 1013.9
20260508004602 8 0 0.0 0.0 0.00 0.86 0.20 85 1013.8
20260508003056 8 0 0.0 3.2 0.00 0.86 0.20 83 1013.6
20260508001555 9 0 0.0 1.6 0.00 0.86 0.20 80 1013.5
20260508000054 10 0 0.0 1.6 0.00 0.86 0.20 79 1013.5
20260507234549 10 0 0.0 1.6 0.00 0.89 0.20 76 1013.5
20260507233052 11 0 0.0 3.2 0.00 0.89 0.20 74 1013.5
20260507231605 11 173 0.0 11.3 0.00 0.89 0.20 76 1013.4
20260507230052 11 0 0.0 11.3 0.00 0.89 0.20 72 1013.3
20260507224602 11 290 1.6 9.7 0.00 0.89 0.20 73 1013.2
20260507223053 11 165 1.6 8.0 0.00 0.89 0.20 71 1013.1
20260507221549 11 246 3.2 11.3 0.00 0.89 0.20 69 1012.9
20260507220046 11 296 3.2 12.9 0.00 0.89 0.20 67 1012.8
20260507214558 11 128 1.6 9.7 0.00 0.89 0.20 71 1012.7
20260507213104 11 186 1.6 9.7 0.00 0.89 0.20 70 1012.7
20260507211555 11 129 0.0 8.0 0.00 0.89 0.20 71 1012.7
20260507210055 12 0 1.6 11.3 0.00 0.89 0.20 70 1012.3
20260507204601 12 163 1.6 8.0 0.00 0.89 0.20 70 1012.4
20260507203054 11 115 1.6 11.3 0.00 0.89 0.20 75 1012.4
20260507201557 11 182 1.6 12.9 0.00 0.89 0.20 75 1012.7
20260507200053 11 0 1.6 6.4 0.00 0.89 0.20 78 1012.7
20260507194555 11 155 1.6 8.0 0.00 0.89 0.20 76 1012.5
20260507193107 11 138 1.6 11.3 0.00 0.89 0.20 76 1012.5
20260507191554 11 135 1.6 8.0 0.00 0.89 0.20 79 1012.8
20260507190104 10 144 0.0 12.9 0.00 0.89 0.20 80 1013.0
20260507184552 10 178 1.6 4.8 0.00 0.89 0.20 82 1013.3
20260507183057 10 196 1.6 9.7 0.00 0.89 0.20 78 1013.1
20260507181551 10 74 0.0 8.0 0.00 0.89 0.20 80 1013.2
20260507180053 10 148 0.0 9.7 0.00 0.89 0.20 82 1013.2
20260507174549 10 138 1.6 4.8 0.00 0.89 0.20 82 1013.1
20260507173054 10 163 0.0 6.4 0.00 0.89 0.20 87 1013.1
20260507171554 10 163 1.6 6.4 0.00 0.89 0.20 85 1013.1
20260507170055 9 202 0.0 6.4 0.00 0.89 0.20 88 1013.0
20260507164549 9 227 0.0 3.2 0.00 1.02 0.20 91 1013.2
20260507163052 8 159 1.6 4.8 0.00 1.02 0.20 92 1013.4
20260507161552 8 0 0.0 3.2 0.03 1.02 0.20 94 1013.4
20260507160100 7 128 0.0 1.6 0.03 1.02 0.20 93 1013.4
20260507154551 7 0 0.0 3.2 0.03 1.42 0.20 94 1013.6
20260507153056 7 0 0.0 4.8 0.03 1.42 0.20 95 1013.5
20260507151553 7 142 0.0 3.2 0.00 1.40 0.18 95 1013.7
20260507150053 7 0 0.0 3.2 0.00 1.40 0.18 95 1013.9
20260507144551 7 0 0.0 1.6 0.00 1.47 0.18 95 1013.7
20260507143051 7 0 0.0 1.6 0.00 1.47 0.18 95 1013.7
20260507141559 7 143 0.0 3.2 0.00 1.47 0.18 95 1013.7
20260507140107 7 92 0.0 3.2 0.00 1.47 0.18 95 1013.8
20260507134547 7 0 0.0 3.2 0.00 1.57 0.18 95 1013.9
20260507133051 7 0 0.0 3.2 0.00 1.57 0.18 95 1013.8
20260507131601 7 0 0.0 4.8 0.00 1.57 0.18 95 1013.9
20260507130100 7 184 0.0 4.8 0.00 1.57 0.18 95 1014.0
20260507124603 8 192 1.6 4.8 0.00 1.68 0.18 95 1013.7
20260507123057 8 0 0.0 3.2 0.08 1.68 0.18 95 1014.0